Date,TemperatureHighF,TemperatureAvgF,TemperatureLowF,DewpointHighF,DewpointAvgF,DewpointLowF,HumidityHigh,HumidityAvg,HumidityLow,PressureMaxIn,PressureMinIn,WindSpeedMaxMPH,WindSpeedAvgMPH,GustSpeedMaxMPH,PrecipitationSumIn
2013-9-1,89.4,74.1,65.6,80.7,71.4,65.6,100,92,74,29.97,29.86,0,0,0,0.02
2013-9-2,86.5,73.4,64.9,78.3,70.7,64.9,100,92,73,29.98,29.88,0,0,0,0.00
2013-9-3,83.1,70.2,62.4,75.0,67.4,62.4,100,92,72,30.04,29.89,0,0,0,0.19
2013-9-4,84.0,70.2,61.1,76.0,67.4,61.1,100,92,73,30.15,30.03,0,0,0,0.00
2013-9-5,85.8,69.9,60.9,74.1,65.1,60.9,100,87,54,30.17,30.11,0,0,0,0.00
2013-9-6,81.6,67.3,56.6,71.4,63.5,56.6,100,89,67,30.22,30.11,0,0,22,0.00
2013-9-7,82.2,68.1,58.1,73.1,64.9,58.1,100,91,69,30.16,30.04,0,0,0,0.00
2013-9-8,85.2,70.0,59.7,76.1,66.9,59.7,100,91,73,30.06,29.99,0,0,0,0.00
2013-9-9,86.1,71.0,60.6,76.4,67.7,60.6,100,90,69,30.18,30.06,0,0,0,0.00
2013-9-10,88.8,71.9,62.2,78.3,68.2,62.2,100,89,66,30.28,30.18,0,0,0,0.00
2013-9-11,86.1,71.3,61.7,77.1,68.9,61.7,100,93,74,30.27,30.14,0,0,0,0.02
2013-9-12,86.5,71.8,63.1,77.4,69.1,63.1,100,92,73,30.15,29.93,0,0,0,0.00
2013-9-13,80.7,68.0,55.2,70.7,62.9,26.6,100,85,25,29.95,29.86,6,0,10,0.00
2013-9-14,75.3,60.6,50.1,63.1,55.7,49.6,100,85,63,30.13,29.95,6,0,6,0.00
2013-9-15,76.6,62.5,50.5,68.5,59.4,50.2,100,91,73,30.22,30.13,4,0,6,0.00
2013-9-16,82.9,66.8,55.0,71.7,62.7,55.0,100,88,67,30.18,30.10,1,0,2,0.00
2013-9-17,71.7,64.7,60.0,63.4,59.9,57.4,96,85,69,30.30,30.18,6,0,6,0.00
2013-9-18,73.0,62.4,55.4,64.6,59.3,25.8,98,90,25,30.28,30.17,3,0,3,0.00
2013-9-19,82.9,66.7,57.0,73.6,64.3,57.0,100,93,69,30.20,30.10,3,0,6,0.06
2013-9-20,85.2,69.2,60.4,74.9,66.1,28.3,100,91,25,30.12,29.97,0,0,0,0.00
2013-9-21,70.5,62.9,58.6,69.6,62.6,58.6,100,99,95,29.97,29.75,0,0,0,1.14
2013-9-22,74.4,62.1,53.0,64.0,58.5,53.0,100,89,66,29.95,29.78,3,0,4,0.00
2013-9-23,74.1,62.4,53.4,64.9,59.3,53.4,100,90,72,30.07,29.94,5,0,5,0.00
2013-9-24,77.5,64.2,53.4,69.0,61.5,53.4,100,92,74,30.08,29.96,2,0,6,0.00
2013-9-25,64.2,61.1,58.8,63.7,60.9,58.8,100,99,97,29.96,29.89,0,0,0,1.08
2013-9-26,71.2,62.5,53.7,66.1,60.6,53.4,100,94,80,30.06,29.90,2,0,5,0.02
2013-9-27,75.5,61.4,52.5,67.0,58.7,52.5,100,91,72,30.18,30.06,3,0,3,0.00
2013-9-28,71.2,61.1,53.9,63.5,58.2,53.9,100,91,75,30.24,30.15,1,0,6,0.00
2013-9-29,73.4,60.7,51.9,63.8,57.5,51.8,100,90,69,30.18,30.04,2,0,3,0.00
2013-9-30,73.2,61.1,51.8,66.1,58.4,18.7,100,92,25,30.11,30.01,1,0,1,0.00